Flag for Finland Weather past 2 weeks in Jakobstad, Finland

Now
39 °F

Clear.


Feels Like: 35 °F
Forecast: 46 / 60 °F
Wind: 6 mph from South

Location: Kruunupyy

Current Time: Sep 4, 2015 at 2:47:15 AM

Latest Report: Sep 4, 2015 at 1:50 AM


Visibility: 5 mi

Pressure: 29.89 "Hg

Humidity: 100%

Dew point: 39 °F

Location of JakobstadLocation

Historic Weather in Jakobstad — Graph

°F

Jakobstad temperature yesterday

Maximum temperature yesterday: 63 °F (at 4:20 PM)
Minimum temperature yesterday: 36 °F (at 3:50 AM)
Average temperature yesterday: 48 °F

Past Weeks' High & Low Weather Summary

 TemperatureHumidityPressure
High77 °F (Aug 22, 2:20 PM)100% (Aug 21, 2:50 AM)30.39 "Hg (Aug 21, 2:50 AM)
Low36 °F (Sep 2, 5:20 AM)33% (Aug 23, 2:50 PM)29.50 "Hg (Aug 28, 3:20 PM)
Average58 °F78%30.01 "Hg
* Reported Aug 20 1:20 AM — Sep 4 1:50 AM, Jakobstad, Weather by CustomWeather, © 2015

Note: Actual official high and low records may vary slightly from our data, if they occured in-between our weather recording intervals... More about our weather records

Advertising

Jakobstad weather history for previous 24 hours

 ConditionsComfort  
Time TempWeatherWind HumidityBarometerVisibility
1:50 AM
Fri, Sep 4
39 °FClear.6 mph100%29.89 "Hg5 mi
1:20 AM39 °FClear.5 mph100%29.89 "Hg10 mi
12:50 AM39 °FClear.3 mph100%29.89 "Hg10 mi
12:20 AM39 °FClear.1 mph100%29.89 "Hg10 mi
11:50 PM
Thu, Sep 3
41 °FClear.1 mph93%29.89 "Hg10 mi
11:20 PM41 °FFog.No wind93%29.89 "Hg3 mi
10:50 PM43 °FClear.No wind93%29.89 "Hg10 mi
10:20 PM43 °FClear.No wind100%29.89 "Hg10 mi
9:50 PM45 °FClear.No wind93%29.92 "Hg10 mi
9:20 PM46 °FSunny.No wind87%29.92 "Hg10 mi
8:50 PM50 °FSunny.1 mph88%29.92 "Hg10 mi
8:20 PM52 °FSunny.3 mph77%29.92 "Hg10 mi
7:50 PM55 °FSunny.5 mph72%29.92 "Hg10 mi
7:20 PM57 °FSunny.5 mph67%29.92 "Hg10 mi
6:50 PM59 °FSunny.7 mph59%29.92 "Hg10 mi
6:20 PM63 °FSunny.1 mph49%29.92 "Hg10 mi
6:02 PM61 °FSunny.2 mph52%29.92 "Hg10 mi
5:20 PM61 °FSunny.1 mph52%29.95 "Hg10 mi
4:50 PM61 °FSunny.3 mph48%29.95 "Hg10 mi
4:20 PM63 °FSunny.3 mph49%29.95 "Hg10 mi
3:50 PM61 °FSunny.2 mph55%29.95 "Hg10 mi
3:20 PM61 °FPassing clouds.3 mph52%29.95 "HgN/A
2:50 PM61 °FSunny.3 mph55%29.98 "Hg10 mi
2:20 PM59 °FPassing clouds.3 mph59%29.98 "HgN/A
1:50 PM59 °FPassing clouds.3 mph59%29.98 "HgN/A
1:20 PM59 °FPassing clouds.5 mph55%29.98 "HgN/A
12:50 PM57 °FSunny.5 mph59%29.98 "Hg10 mi
12:20 PM55 °FPassing clouds.5 mph59%30.01 "HgN/A
11:50 AM55 °FPassing clouds.5 mph59%30.01 "HgN/A
11:20 AM54 °FPassing clouds.6 mph67%30.01 "HgN/A
10:50 AM52 °FSunny.7 mph72%30.01 "Hg10 mi
10:20 AM50 °FPassing clouds.5 mph76%30.01 "HgN/A
9:50 AM46 °FSunny.2 mph87%30.01 "Hg10 mi
9:20 AM46 °FSunny.3 mph87%30.01 "Hg10 mi
8:50 AM45 °FSunny.3 mph93%30.01 "Hg10 mi
8:20 AM41 °FSunny.No wind100%30.01 "Hg10 mi
7:50 AM39 °FSunny.No wind93%30.01 "Hg10 mi
7:20 AM36 °FSunny.No wind100%30.01 "Hg10 mi
6:20 AM36 °FClear.No wind93%30.01 "Hg10 mi
5:50 AM36 °FClear.No wind100%30.01 "Hg10 mi
5:20 AM36 °FClear.No wind100%30.01 "Hg10 mi
4:50 AM36 °FClear.No wind100%30.01 "Hg10 mi
4:20 AM37 °FClear.No wind93%30.04 "Hg10 mi
3:50 AM36 °FClear.No wind100%30.04 "Hg10 mi
3:20 AM37 °FClear.No wind93%30.04 "Hg10 mi
2:50 AM37 °FClear.No wind93%30.04 "Hg10 mi
2:20 AM37 °FClear.No wind93%30.04 "Hg10 mi
Weather by CustomWeather, © 2015

See weather overviewHow to use our weather pages